Terminal Aerodrome Forecast
Issued by NWS Hastings, NE

Home | Current Version | Previous Version | Text Only | Print | Product List | Glossary On
Versions: 1 2 3 4 5 6 7 8 9 10 11 12 13 14 15 16 17 18 19 20 21 22 23 24 25 26 27 28 29 30 31 32 33 34 35 36 37 38
000
FTUS43 KGID 271416 AAA
TAFGRI
TAF AMD
KGRI 271416Z 2714/2812 28010KT P6SM FEW040 SCT200 WS005/34035KT
     FM271600 29008KT P6SM SKC
     FM280000 24008KT P6SM SKC=

USA.gov is the U.S. government's official web portal to all federal, state and local government web resources and services.